DLH72K LPPT-EDDF

Flight info

Callsign DLH72K
Flight time N/A
Altitude 36000
Route IXIDA DCT TOSDI DCT ZMR DCT NUBLO DCT RONSI DCT DELOG DCT PEXOD/N0437F380 DCT DIDIG DCT TIRAV DCT ERJAZ DCT PIWIZ DCT TSU UN858 OQQAL DCT RANUX/N0435F370 DCT VALEK DCT LIPNI DCT LIMGO/N0425F350 Z111 TUTOV/N0353F230 Z111 RAMOB IMCOM1A
Aircraft A320/M-SDE2E3FGIJ1LORWXYZ/HB1

Departure

Time 2026-05-07 10:27
Airport Lisbon Humberto Delgado Airport (LPPT)

Arrival

Time N/A
Airport Frankfurt Main Airport (EDDF)
Time Latitude Longitude Altitude Speed Heading
2026-05-07 10:10 38.77297 -9.13162 334 ft 0 kts 78°
2026-05-07 10:20 38.77295 -9.13177 333 ft 4 kts 78°
2026-05-07 10:20 38.77289 -9.13211 334 ft 4 kts 68°
2026-05-07 10:20 38.77274 -9.13236 332 ft 4 kts 23°
2026-05-07 10:20 38.77255 -9.13240 334 ft 1 kts 348°
2026-05-07 10:21 38.77251 -9.13239 334 ft 0 kts 348°
2026-05-07 10:23 38.77297 -9.13252 338 ft 12 kts 342°
2026-05-07 10:23 38.77317 -9.13372 349 ft 17 kts 257°
2026-05-07 10:23 38.77294 -9.13508 347 ft 15 kts 258°
2026-05-07 10:24 38.77274 -9.13628 356 ft 13 kts 258°
2026-05-07 10:24 38.77254 -9.13748 353 ft 15 kts 258°
2026-05-07 10:24 38.77208 -9.13856 359 ft 15 kts 210°
2026-05-07 10:24 38.77107 -9.13911 356 ft 18 kts 203°
2026-05-07 10:25 38.76975 -9.13982 352 ft 23 kts 202°
2026-05-07 10:25 38.76816 -9.14067 352 ft 26 kts 202°
2026-05-07 10:25 38.76666 -9.14147 347 ft 16 kts 202°
2026-05-07 10:25 38.76593 -9.14219 338 ft 14 kts 260°
2026-05-07 10:26 38.76620 -9.14319 335 ft 12 kts 297°
2026-05-07 10:26 38.76693 -9.14362 337 ft 12 kts 12°
2026-05-07 10:26 38.76813 -9.14299 344 ft 44 kts 22°
2026-05-07 10:26 38.77314 -9.14034 361 ft 108 kts 23°
2026-05-07 10:27 38.78175 -9.13571 369 ft 158 kts 23°
2026-05-07 10:27 38.79228 -9.12999 872 ft 163 kts 19°
2026-05-07 10:27 38.80279 -9.12429 1585 ft 165 kts 19°
2026-05-07 10:27 38.81391 -9.11830 1967 ft 185 kts 24°
2026-05-07 10:28 38.82573 -9.10954 2294 ft 208 kts 28°
2026-05-07 10:28 38.83770 -9.09736 2722 ft 233 kts 40°
2026-05-07 10:28 38.84991 -9.08207 3231 ft 255 kts 44°
2026-05-07 10:28 38.86266 -9.06564 4022 ft 263 kts 45°
2026-05-07 10:29 38.87563 -9.04871 4906 ft 268 kts 45°
2026-05-07 10:29 38.88887 -9.03145 5739 ft 274 kts 46°
2026-05-07 10:29 38.90255 -9.01403 6565 ft 279 kts 46°
2026-05-07 10:30 38.93087 -8.97871 8217 ft 288 kts 45°
2026-05-07 10:30 38.94544 -8.96063 9041 ft 292 kts 45°
2026-05-07 10:30 38.96016 -8.94234 9862 ft 297 kts 44°
2026-05-07 10:30 38.97523 -8.92355 10385 ft 311 kts 44°
2026-05-07 10:31 38.99132 -8.90345 10665 ft 333 kts 44°
2026-05-07 10:31 39.00814 -8.88240 11267 ft 341 kts 44°
2026-05-07 10:31 39.02527 -8.86091 11973 ft 347 kts 44°
2026-05-07 10:31 39.04258 -8.83918 12737 ft 349 kts 44°
2026-05-07 10:32 39.06006 -8.81724 13477 ft 352 kts 43°
2026-05-07 10:32 39.07768 -8.79514 14163 ft 355 kts 43°
2026-05-07 10:32 39.09541 -8.77284 14814 ft 358 kts 43°
2026-05-07 10:32 39.11326 -8.75036 15454 ft 361 kts 43°
2026-05-07 10:33 39.13128 -8.72762 16100 ft 363 kts 43°
2026-05-07 10:33 39.14941 -8.70473 16734 ft 367 kts 43°
2026-05-07 10:33 39.16771 -8.68168 17364 ft 370 kts 42°
2026-05-07 10:33 39.18616 -8.65845 17992 ft 373 kts 42°
2026-05-07 10:34 39.20482 -8.63494 18556 ft 376 kts 42°
2026-05-07 10:34 39.22358 -8.61123 19094 ft 379 kts 41°
2026-05-07 10:34 39.24244 -8.58732 19629 ft 382 kts 41°
2026-05-07 10:34 39.26143 -8.56322 20161 ft 385 kts 41°
2026-05-07 10:35 39.28058 -8.53896 20700 ft 387 kts 41°
2026-05-07 10:35 39.29988 -8.51447 21221 ft 390 kts 40°
2026-05-07 10:35 39.31927 -8.48984 21723 ft 392 kts 40°
2026-05-07 10:35 39.33879 -8.46503 22235 ft 395 kts 40°
2026-05-07 10:36 39.35844 -8.44004 22731 ft 398 kts 39°
2026-05-07 10:36 39.37823 -8.41486 23210 ft 401 kts 39°
2026-05-07 10:36 39.39814 -8.38951 23668 ft 403 kts 39°
2026-05-07 10:36 39.41816 -8.36396 24055 ft 406 kts 39°
2026-05-07 10:37 39.43832 -8.33820 24460 ft 408 kts 39°
2026-05-07 10:37 39.45857 -8.31232 24858 ft 410 kts 39°
2026-05-07 10:37 39.47892 -8.28630 25230 ft 413 kts 39°
2026-05-07 10:37 39.49937 -8.26014 25613 ft 415 kts 38°
2026-05-07 10:38 39.51996 -8.23379 26017 ft 417 kts 38°
2026-05-07 10:38 39.54059 -8.20731 26403 ft 419 kts 38°
2026-05-07 10:38 39.56132 -8.18069 26770 ft 420 kts 38°
2026-05-07 10:38 39.58185 -8.15431 27132 ft 423 kts 38°
2026-05-07 10:39 39.60277 -8.12745 27480 ft 425 kts 38°
2026-05-07 10:39 39.62387 -8.10037 27845 ft 427 kts 37°
2026-05-07 10:39 39.64503 -8.07312 28201 ft 429 kts 37°
2026-05-07 10:39 39.66625 -8.04574 28548 ft 432 kts 37°
2026-05-07 10:40 39.68758 -8.01822 28871 ft 434 kts 37°
2026-05-07 10:40 39.70904 -7.99055 29221 ft 436 kts 37°
2026-05-07 10:40 39.73060 -7.96273 29553 ft 438 kts 37°
2026-05-07 10:40 39.75230 -7.93473 29882 ft 440 kts 36°
2026-05-07 10:41 39.77406 -7.90661 30183 ft 442 kts 37°
2026-05-07 10:41 39.79590 -7.87837 30419 ft 444 kts 37°
2026-05-07 10:41 39.81779 -7.85000 30643 ft 446 kts 37°
2026-05-07 10:41 39.83984 -7.82145 30896 ft 448 kts 37°
2026-05-07 10:42 39.86195 -7.79278 31128 ft 450 kts 37°
2026-05-07 10:42 39.88409 -7.76402 31392 ft 450 kts 37°
2026-05-07 10:42 39.89905 -7.74450 31633 ft 450 kts 37°
2026-05-07 10:42 39.92116 -7.71561 31952 ft 450 kts 37°
2026-05-07 10:43 39.94294 -7.68719 32298 ft 449 kts 36°
2026-05-07 10:43 39.96499 -7.65842 32626 ft 449 kts 36°
2026-05-07 10:43 39.98736 -7.62923 32955 ft 449 kts 36°
2026-05-07 10:43 40.00944 -7.60043 33318 ft 449 kts 37°
2026-05-07 10:44 40.03144 -7.57170 33713 ft 447 kts 38°
2026-05-07 10:44 40.05339 -7.54301 34047 ft 446 kts 38°
2026-05-07 10:44 40.07501 -7.51471 34307 ft 446 kts 38°
2026-05-07 10:44 40.09725 -7.48559 34519 ft 447 kts 38°
2026-05-07 10:45 40.11893 -7.45715 34708 ft 448 kts 38°
2026-05-07 10:45 40.14121 -7.42787 34937 ft 449 kts 39°
2026-05-07 10:45 40.16262 -7.39968 35151 ft 450 kts 39°
2026-05-07 10:45 40.18465 -7.37059 35359 ft 450 kts 39°
2026-05-07 10:46 40.20669 -7.34149 35574 ft 451 kts 39°
2026-05-07 10:46 40.22879 -7.31233 35770 ft 451 kts 39°
2026-05-07 10:46 40.25095 -7.28307 35901 ft 453 kts 39°
2026-05-07 10:46 40.27308 -7.25379 35907 ft 453 kts 40°
2026-05-07 10:47 40.31734 -7.19513 35907 ft 452 kts 40°
2026-05-07 10:47 40.36156 -7.13640 35907 ft 453 kts 40°
2026-05-07 10:48 40.40576 -7.07765 35904 ft 452 kts 40°
2026-05-07 10:48 40.44998 -7.01886 35910 ft 452 kts 40°
2026-05-07 10:49 40.49412 -6.95996 35909 ft 452 kts 40°
2026-05-07 10:49 40.53820 -6.90093 35910 ft 452 kts 40°
2026-05-07 10:50 40.58230 -6.84187 35926 ft 452 kts 41°
2026-05-07 10:50 40.62632 -6.78272 35917 ft 452 kts 41°
2026-05-07 10:51 40.67023 -6.72357 35910 ft 452 kts 41°
2026-05-07 10:51 40.71417 -6.66445 35913 ft 451 kts 41°
2026-05-07 10:52 40.75802 -6.60527 35912 ft 451 kts 41°
2026-05-07 10:52 40.80177 -6.54599 35906 ft 451 kts 41°
2026-05-07 10:53 40.84550 -6.48670 35917 ft 451 kts 41°
2026-05-07 10:53 40.88922 -6.42728 35904 ft 452 kts 42°
2026-05-07 10:54 40.93301 -6.36756 35903 ft 452 kts 42°
2026-05-07 10:54 40.97678 -6.30771 35908 ft 452 kts 43°
2026-05-07 10:55 41.02148 -6.24930 35909 ft 451 kts 39°
2026-05-07 10:55 41.06837 -6.19434 35911 ft 450 kts 37°
2026-05-07 10:56 41.11563 -6.13990 35911 ft 450 kts 38°
2026-05-07 10:56 41.16203 -6.08501 35921 ft 450 kts 39°
2026-05-07 10:57 41.20866 -6.02878 35918 ft 454 kts 40°